カタログに戻る

FENGYUN 1C DEB

運用中PO
NORAD 31743·DEBRIS·🇨🇳 China

打ち上げ May 10, 1999 から Taiyuan Satellite Launch Center

Loading…

次のパス (今後24時間)

TLE

最新Source: Space-Track

元期: Sep 14, 2026, 08:07 UTC

1 31743U 99025CES 26257.33874977  .00002866  00000-0  10455-2 0  9992
2 31743  99.1541 205.3978 0037611 135.5609  16.2776 14.33523671995861

AllMySatでFENGYUN 1C DEBをリアルタイム追跡

Download on the App Store